Temp
15 15 16 16 16 16 16 16 15 15 16 16 16 15 15 13 13 12 14 14 12 12 11 10 10 10 10 10 10 10 10 10 10 10 10 10 10 10 10 9 10 10 10 10
15 15 17 16 16 16 16 16 15 15 15 15 17 16 16 15 13 13 13 14 14 12 12 11 10 10 10 10 11 10 10 10 10 10 10 10 10 10 10 10 9 10 10 10
15 17 16 16 17 16 17 16 16 16 16 15 15 16 17 16 14 14 14 14 14 13 13 12 11 11 11 11 11 11 10 10 10 10 11 11 11 10 10 10 10 10 10 10
15 16 16 16 16 16 16 17 17 17 16 15 14 14 17 16 15 15 15 15 15 14 14 12 12 12 12 12 12 11 11 10 10 11 11 11 11 10 10 10 10 9 10 10
15 16 16 16 16 16 16 18 18 17 16 15 13 13 16 15 15 15 15 16 16 15 15 14 13 13 12 12 12 12 12 11 11 11 12 12 11 11 10 10 10 9 10 10
15 15 15 16 16 16 16 16 16 15 15 13 14 14 17 16 16 16 16 17 16 16 15 15 13 13 13 13 12 12 12 12 12 11 12 12 11 11 10 10 10 9 9 10
15 16 16 16 16 17 17 17 15 14 12 11 15 15 18 17 16 15 16 17 16 16 16 16 15 14 14 13 13 13 12 12 12 12 12 12 11 11 10 10 10 9 10 11
15 16 17 17 17 17 17 17 17 14 11 13 15 16 19 17 16 16 16 15 16 16 16 16 15 15 15 14 13 13 13 12 12 11 11 11 11 11 11 10 10 10 10 11
15 15 17 17 17 17 18 18 18 17 14 13 14 17 18 18 17 16 16 16 15 16 16 16 15 15 15 14 14 14 13 12 12 12 11 11 11 11 11 10 10 10 11 10
15 15 16 17 17 18 18 18 17 17 11 12 13 16 18 18 18 17 16 16 16 16 16 16 16 15 15 15 14 14 13 12 12 12 11 11 11 11 11 11 11 11 11 10
16 16 16 16 17 18 18 17 18 17 17 11 11 16 19 19 18 19 17 17 17 16 16 16 16 16 15 15 14 14 13 12 12 12 12 11 11 11 11 12 12 11 11 10
16 16 16 17 17 17 18 18 18 18 17 16 16 18 19 19 19 18 18 18 18 18 18 17 16 16 15 15 14 14 13 13 12 12 12 11 11 11 12 12 12 11 10 10
17 16 16 16 17 17 17 17 17 17 17 18 15 18 19 18 19 18 18 18 18 18 18 17 17 16 16 15 14 14 13 13 13 12 12 11 12 12 13 12 11 10 10 9
16 16 17 16 17 17 17 17 17 17 17 17 17 18 19 19 18 19 18 18 18 17 18 18 18 17 16 16 14 14 13 13 13 12 12 12 12 12 13 12 11 11 10 9
16 16 16 16 16 16 16 16 16 17 16 17 18 18 19 19 19 19 18 18 18 17 17 18 18 17 17 17 16 14 14 13 13 13 12 12 12 12 12 11 11 10 10 9
14 14 14 15 15 16 15 16 16 16 17 17 18 18 18 18 18 18 18 18 18 18 17 18 17 17 17 17 16 15 14 14 14 13 12 13 13 12 12 11 11 10 9 9
13 13 13 15 15 15 15 14 14 14 15 16 17 17 17 18 18 18 18 17 18 17 18 18 17 17 17 17 16 16 15 14 13 13 12 13 12 12 12 11 11 10 9 9
13 13 13 14 15 13 13 13 13 13 13 14 16 17 18 18 17 17 17 17 18 17 17 17 17 17 17 16 16 15 15 14 13 12 12 12 12 11 12 11 11 10 10 9
13 13 13 13 13 13 12 12 13 13 13 14 15 16 18 18 17 17 17 17 17 17 17 17 17 16 16 16 16 15 14 14 14 13 13 12 11 11 11 11 10 10 9 9
12 13 13 13 12 11 13 13 13 14 12 13 13 14 16 15 15 14 15 16 17 17 17 16 16 16 16 15 15 14 14 13 12 11 10 10 10 10 11 10 10 9 9 8
11 11 11 11 11 12 12 12 12 12 12 13 13 13 13 14 13 14 15 14 15 17 17 16 16 16 15 15 14 14 12 12 11 10 9 8 8 9 9 9 9 9 9 8
11 11 11 11 11 12 13 12 12 12 12 12 13 13 12 12 11 12 13 15 16 16 16 16 16 15 15 15 14 13 12 11 11 12 10 10 8 9 8 8 7 8 8 7
10 10 10 10 12 11 12 12 11 11 12 12 12 12 13 12 11 12 13 14 14 14 14 15 15 15 14 14 13 12 11 11 11 11 11 10 9 9 8 7 6 7 6 6
9 9 10 10 11 10 11 11 10 10 11 11 11 12 13 13 12 12 12 13 13 13 13 14 14 14 13 13 12 11 11 11 11 10 11 10 9 8 7 7 6 5 5 6
9 9 9 10 9 9 9 11 10 9 9 10 11 11 12 12 12 12 12 13 15 15 13 13 13 13 12 11 9 9 9 10 9 9 10 10 9 8 7 7 5 5 6 6
9 9 9 9 9 9 9 9 9 9 9 10 10 10 11 12 11 12 13 12 12 12 12 12 12 12 11 11 10 10 10 9 10 10 10 10 9 8 8 6 5 5 6 5
Height
3166 3166 3165 3167 3169 3170 3168 3169 3171 3169 3167 3165 3160 3154 3157 3157 3158 3160 3163 3163 3163 3166 3168 3170 3173 3176 3179 3182 3184 3185 3187 3187 3186 3186 3186 3187 3188 3187 3187 3186 3184 3183 3181 3179
3163 3161 3165 3166 3167 3167 3166 3167 3167 3167 3164 3162 3155 3154 3154 3155 3155 3155 3158 3163 3163 3164 3166 3168 3171 3174 3177 3180 3182 3183 3185 3186 3185 3186 3187 3188 3188 3188 3188 3186 3184 3182 3180 3176
3159 3160 3162 3163 3163 3164 3164 3163 3162 3163 3161 3159 3157 3153 3152 3153 3154 3154 3154 3158 3160 3162 3163 3166 3167 3170 3174 3177 3179 3181 3183 3185 3185 3187 3188 3188 3188 3188 3187 3186 3184 3181 3178 3175
3157 3158 3160 3161 3161 3163 3159 3157 3157 3158 3158 3158 3158 3154 3149 3151 3151 3150 3152 3153 3155 3158 3160 3163 3165 3168 3171 3175 3178 3179 3181 3183 3185 3187 3188 3188 3187 3187 3185 3185 3184 3180 3177 3174
3153 3155 3157 3157 3159 3161 3161 3155 3156 3156 3157 3157 3157 3156 3147 3146 3146 3145 3145 3147 3150 3154 3157 3160 3163 3166 3170 3173 3177 3178 3180 3181 3183 3185 3186 3186 3186 3185 3184 3183 3182 3179 3176 3174
3150 3152 3153 3153 3155 3158 3160 3159 3157 3157 3157 3158 3154 3154 3144 3144 3142 3139 3140 3141 3147 3151 3154 3159 3162 3165 3168 3170 3174 3176 3178 3179 3181 3183 3184 3185 3185 3184 3182 3182 3181 3178 3175 3172
3148 3148 3149 3150 3152 3154 3155 3156 3156 3158 3157 3156 3152 3151 3143 3142 3140 3137 3137 3140 3144 3149 3154 3157 3160 3162 3163 3167 3172 3173 3175 3177 3180 3181 3183 3183 3183 3183 3181 3180 3179 3177 3174 3171
3147 3145 3146 3147 3150 3151 3152 3153 3152 3155 3156 3152 3150 3146 3142 3140 3141 3138 3137 3140 3142 3146 3150 3154 3158 3161 3162 3164 3168 3171 3173 3174 3178 3180 3181 3181 3181 3181 3178 3178 3176 3174 3172 3170
3142 3142 3143 3145 3147 3149 3148 3147 3147 3148 3150 3151 3149 3144 3140 3140 3139 3139 3138 3139 3141 3145 3147 3151 3155 3159 3162 3163 3165 3168 3170 3172 3175 3178 3179 3179 3179 3177 3175 3174 3174 3171 3170 3168
3139 3139 3139 3142 3144 3145 3144 3143 3142 3143 3151 3153 3147 3143 3139 3136 3137 3137 3138 3140 3143 3145 3147 3149 3153 3157 3159 3161 3163 3166 3167 3167 3172 3175 3177 3177 3177 3176 3174 3172 3171 3169 3168 3167
3134 3137 3135 3138 3140 3140 3140 3138 3140 3142 3141 3143 3148 3142 3138 3136 3136 3137 3138 3140 3142 3144 3146 3148 3151 3154 3157 3158 3160 3163 3164 3163 3169 3172 3174 3174 3174 3172 3172 3170 3169 3167 3166 3166
3129 3131 3130 3133 3136 3137 3137 3138 3138 3137 3138 3138 3137 3138 3137 3137 3137 3137 3138 3139 3139 3140 3142 3146 3148 3150 3153 3154 3156 3157 3158 3160 3166 3169 3170 3170 3169 3169 3168 3168 3167 3167 3166 3166
3122 3124 3128 3129 3133 3133 3134 3134 3135 3133 3132 3133 3134 3135 3135 3136 3136 3136 3137 3136 3138 3139 3141 3144 3146 3147 3149 3150 3152 3152 3155 3158 3162 3164 3165 3166 3165 3166 3165 3165 3165 3165 3165 3164
3119 3120 3122 3124 3128 3129 3130 3131 3132 3131 3131 3131 3131 3131 3130 3132 3133 3135 3136 3136 3136 3138 3141 3142 3143 3144 3146 3147 3147 3149 3151 3155 3158 3159 3160 3161 3162 3162 3162 3162 3162 3162 3162 3161
3118 3119 3121 3122 3123 3125 3126 3126 3128 3128 3128 3127 3126 3124 3126 3127 3129 3131 3132 3133 3134 3136 3137 3139 3141 3142 3143 3143 3143 3144 3148 3151 3153 3153 3155 3157 3158 3159 3159 3159 3160 3160 3159 3159
3117 3118 3119 3120 3121 3121 3122 3123 3124 3124 3124 3122 3121 3119 3120 3123 3126 3128 3128 3129 3130 3133 3134 3135 3136 3138 3138 3139 3141 3143 3145 3147 3147 3148 3149 3151 3153 3154 3155 3156 3155 3156 3156 3155
3117 3117 3117 3117 3117 3119 3121 3122 3121 3121 3119 3118 3117 3118 3116 3118 3122 3125 3126 3126 3129 3131 3133 3133 3133 3134 3135 3138 3139 3140 3141 3142 3143 3144 3145 3145 3148 3149 3150 3150 3152 3153 3153 3152
3116 3116 3116 3114 3115 3120 3120 3120 3120 3118 3117 3115 3114 3113 3113 3113 3115 3119 3121 3122 3125 3128 3129 3130 3131 3131 3133 3134 3135 3136 3137 3138 3139 3139 3140 3142 3142 3144 3145 3147 3148 3148 3148 3148
3113 3113 3113 3114 3114 3118 3118 3118 3118 3117 3115 3113 3111 3110 3109 3109 3110 3114 3116 3116 3118 3120 3126 3128 3129 3130 3131 3132 3132 3132 3132 3132 3132 3132 3133 3136 3138 3140 3142 3144 3144 3143 3143 3142
3108 3109 3111 3112 3112 3114 3115 3114 3114 3113 3113 3111 3110 3107 3107 3106 3108 3112 3112 3113 3113 3115 3119 3123 3125 3126 3128 3129 3129 3129 3129 3129 3127 3125 3126 3130 3132 3136 3139 3140 3139 3138 3137 3137
3107 3107 3107 3108 3109 3111 3111 3111 3111 3114 3116 3111 3109 3106 3104 3105 3107 3108 3109 3109 3109 3110 3115 3117 3119 3120 3122 3123 3123 3123 3121 3120 3121 3118 3104 3122 3127 3131 3134 3134 3134 3133 3133 3132
3105 3106 3106 3106 3107 3108 3108 3110 3111 3110 3109 3109 3108 3107 3103 3102 3102 3103 3104 3105 3106 3109 3112 3114 3115 3115 3115 3116 3117 3117 3116 3117 3117 3117 3112 3112 3118 3122 3123 3127 3127 3128 3129 3128
3103 3103 3104 3105 3104 3104 3103 3104 3104 3104 3107 3107 3108 3109 3104 3103 3099 3103 3103 3106 3106 3108 3111 3111 3111 3111 3110 3112 3115 3114 3116 3114 3112 3113 3112 3114 3116 3113 3112 3115 3120 3121 3122 3122
3100 3100 3100 3100 3099 3099 3098 3097 3097 3097 3100 3101 3103 3104 3103 3103 3106 3103 3104 3108 3104 3106 3108 3108 3106 3105 3106 3107 3107 3108 3110 3108 3109 3110 3112 3111 3110 3108 3108 3108 3109 3112 3116 3116
3098 3097 3096 3096 3096 3094 3092 3090 3090 3091 3093 3095 3097 3098 3100 3100 3100 3105 3108 3106 3104 3100 3100 3102 3100 3102 3099 3098 3089 3081 3097 3104 3105 3105 3107 3107 3103 3102 3103 3103 3106 3110 3112 3113
3092 3093 3092 3092 3092 3091 3090 3088 3085 3085 3086 3090 3093 3094 3096 3097 3097 3096 3101 3099 3097 3095 3095 3094 3092 3093 3092 3093 3092 3083 3092 3089 3094 3098 3100 3101 3099 3099 3099 3099 3103 3106 3108 3108
Wind_Speed
24 20 21 12 6 11 18 20 5 2 4 11 7 10 15 24 22 19 17 11 12 7 7 13 13 18 15 12 12 9 7 9 5 2 1 1 2 4 6 7 10 11 13 12
24 25 18 12 11 14 17 15 11 8 9 6 3 12 12 15 28 23 21 15 9 11 7 16 17 18 19 13 9 10 4 1 1 3 4 4 2 2 5 6 9 10 13 15
24 24 16 12 8 13 18 20 16 15 9 12 17 17 13 18 18 16 21 18 15 12 12 10 15 16 16 13 10 9 7 5 3 4 7 5 4 4 7 10 11 12 12 13
22 25 13 11 16 15 23 11 7 20 12 6 10 6 6 14 15 15 15 14 15 15 13 12 13 9 11 6 11 12 10 6 2 2 6 5 4 7 9 12 11 12 14 13
18 19 16 18 15 14 20 5 10 14 18 9 5 6 5 13 11 12 14 15 13 16 15 13 11 9 7 9 13 13 10 8 4 2 6 6 5 9 9 11 16 17 17 14
22 17 17 19 15 14 16 11 16 16 13 5 2 3 10 7 6 11 15 22 16 15 15 13 11 11 11 13 15 14 12 9 6 4 6 6 6 9 11 14 16 18 17 13
15 19 20 19 18 16 15 13 6 3 0 6 8 7 12 8 5 8 11 15 15 14 14 11 13 15 16 14 15 15 14 12 7 6 6 7 7 9 12 14 16 17 16 12
9 8 18 18 17 15 11 11 7 5 3 5 5 7 9 8 4 2 7 13 13 14 13 13 12 12 13 15 16 16 14 11 8 6 6 8 10 12 13 15 17 17 14 11
9 10 6 7 6 9 14 21 19 9 4 1 4 12 18 2 2 5 2 7 13 13 15 15 18 15 15 15 15 13 11 11 9 10 9 9 12 13 16 16 16 15 11 9
22 21 11 7 8 12 15 18 7 7 5 3 4 9 13 9 3 4 4 5 9 12 10 10 15 19 13 15 12 13 10 14 11 14 12 10 12 14 16 15 14 11 8 5
26 25 24 15 10 7 7 10 9 4 5 8 2 6 11 6 7 14 15 10 9 11 12 10 12 14 12 13 13 12 10 12 12 15 13 12 13 15 15 11 9 8 6 4
21 19 29 21 17 18 10 11 12 10 11 7 5 10 8 4 7 9 12 13 9 8 8 11 12 12 15 10 12 9 12 13 11 11 13 14 15 16 12 8 7 7 6 5
13 21 31 29 20 8 6 3 11 12 12 16 8 9 11 13 13 10 12 13 13 10 10 14 13 11 13 12 14 11 11 12 13 13 14 15 16 14 11 8 7 6 6 6
2 9 17 23 8 5 4 7 9 10 5 10 12 19 15 12 19 10 13 14 15 15 11 12 10 11 14 13 14 15 14 14 15 14 16 18 16 14 11 8 7 7 7 7
3 2 4 3 2 5 6 12 11 10 9 7 16 17 19 18 15 11 8 15 20 20 18 14 15 12 13 13 13 16 17 19 16 16 19 20 18 15 13 10 8 8 7 8
5 7 4 3 4 8 10 9 10 10 12 14 16 12 17 16 24 16 14 15 20 24 22 18 17 16 13 15 15 16 18 18 17 20 22 21 20 17 16 14 11 9 8 11
5 9 8 3 5 9 10 7 7 4 6 11 12 9 13 19 21 18 13 14 20 21 17 15 11 15 18 19 18 19 19 20 22 24 24 23 21 19 20 16 12 11 10 14
9 9 5 4 7 1 4 3 4 3 4 5 11 14 13 14 28 27 19 20 21 20 18 17 10 6 8 17 22 22 21 23 25 26 24 22 21 21 23 19 14 11 13 16
14 13 7 3 1 3 9 5 10 3 2 5 11 13 17 18 22 32 23 29 26 24 19 14 12 9 11 12 10 16 22 25 27 29 25 24 23 23 23 19 15 14 14 17
4 10 13 11 3 5 6 7 11 5 6 7 8 9 10 14 15 11 10 22 32 31 26 24 18 20 21 19 13 12 12 17 25 29 24 23 23 23 21 19 18 16 15 18
6 4 2 1 2 5 6 9 7 5 7 9 17 22 23 21 16 12 11 11 10 17 23 20 24 29 28 24 21 19 22 24 22 22 14 14 20 22 20 19 17 17 19 21
4 4 6 6 4 6 5 9 8 8 6 14 16 19 22 18 15 10 9 14 14 13 14 14 16 21 26 27 22 25 25 21 22 28 29 27 21 28 28 22 19 19 21 19
8 8 5 7 6 8 12 17 13 7 10 10 8 15 20 16 13 9 7 5 6 6 9 7 10 14 17 20 21 23 19 20 20 20 15 14 19 31 35 32 20 16 16 17
8 7 8 8 7 14 15 22 22 17 13 11 9 11 13 31 28 9 16 15 5 9 9 8 9 12 15 17 21 24 19 15 12 15 6 9 20 29 29 31 35 28 14 18
12 12 14 11 8 10 11 18 27 24 19 16 13 9 10 18 8 15 25 32 20 21 29 23 16 20 24 26 24 9 15 12 10 14 12 17 17 23 25 24 29 22 18 23
18 14 16 14 8 11 10 8 10 18 20 20 18 14 11 15 17 20 28 31 32 38 32 28 23 21 20 24 22 21 15 20 7 9 12 19 17 16 18 20 23 21 19 20
Wind_Direction
209 223 217 199 240 297 309 320 239 168 213 30 251 230 279 245 230 245 256 262 249 273 213 196 215 225 243 260 261 271 294 327 343 317 231 131 78 44 25 3 3 346 345 336
208 213 197 239 268 295 301 304 231 216 231 245 24 336 259 224 221 228 235 257 262 250 241 218 216 227 242 266 235 252 266 73 28 261 213 211 212 12 340 347 348 350 341 340
206 197 214 242 267 294 301 287 239 242 215 231 249 289 243 227 231 235 229 233 227 237 242 228 223 228 241 249 222 171 196 129 68 230 216 208 255 308 333 339 347 345 348 344
220 209 213 234 272 308 321 320 211 220 213 224 218 295 335 221 230 234 241 241 225 213 201 213 214 205 213 199 183 170 160 146 121 257 227 236 274 300 324 338 341 344 351 348
207 220 228 248 263 309 321 281 220 218 209 250 226 269 245 200 225 227 239 237 229 197 188 190 206 181 166 185 194 171 166 157 174 258 245 256 288 310 315 326 337 340 345 337
231 237 252 243 262 287 296 258 207 205 212 260 310 293 268 212 304 239 249 227 210 198 180 172 197 221 172 176 185 178 163 159 170 224 257 271 295 310 306 319 326 330 331 326
239 244 249 250 269 269 291 220 180 222 181 228 302 282 292 308 266 261 246 206 206 219 208 184 193 192 179 182 194 180 173 158 171 203 246 269 293 308 292 310 321 324 319 321
237 278 235 229 251 279 290 279 255 204 197 259 289 251 300 329 297 238 220 231 230 241 245 222 209 205 191 180 179 177 181 167 179 210 239 279 309 301 301 310 319 315 311 319
222 245 194 191 244 267 282 283 279 241 149 287 265 286 308 320 192 171 124 201 212 229 253 239 227 218 200 185 182 185 173 177 196 231 249 287 307 295 306 312 307 304 313 315
243 255 263 255 241 246 289 268 214 192 129 229 260 295 290 308 219 207 178 169 224 247 248 213 202 209 204 192 184 194 189 188 209 236 255 289 288 290 304 305 298 300 301 297
236 243 257 269 274 274 314 242 228 253 224 159 175 260 300 23 171 205 214 230 256 233 206 219 219 213 206 202 202 202 208 189 209 226 255 278 278 289 296 292 290 284 273 280
249 242 252 266 274 284 265 306 287 230 241 223 196 243 222 245 205 214 217 218 218 230 219 229 237 229 222 223 216 225 206 206 223 238 254 273 286 287 284 271 263 256 260 284
243 228 243 263 268 251 231 20 351 352 290 234 195 241 257 232 249 217 199 213 201 200 202 228 219 238 256 244 230 233 226 227 240 246 256 270 277 275 273 259 261 249 262 288
273 237 224 235 236 185 269 305 330 343 313 322 270 258 237 246 234 236 239 234 216 221 219 213 221 226 246 250 239 240 238 246 253 248 257 265 265 263 256 252 256 264 282 306
241 308 217 149 360 305 317 305 311 328 338 329 312 301 274 253 224 237 247 218 223 227 236 227 224 225 234 241 238 238 241 251 243 246 257 256 251 256 247 241 248 261 280 301
44 53 50 76 3 312 307 295 304 296 301 315 310 297 243 226 223 240 247 246 224 222 232 239 243 237 233 243 239 239 241 237 238 244 244 248 246 249 236 236 247 265 289 305
329 354 27 83 303 316 315 19 18 21 313 306 305 285 239 230 231 226 232 238 210 216 225 245 254 248 242 245 246 243 244 244 242 240 242 247 244 243 238 238 244 263 285 301
294 296 356 312 279 40 180 257 346 325 333 298 287 285 262 239 224 224 234 215 220 228 223 222 214 204 230 240 246 249 247 244 246 249 252 252 245 238 237 240 245 266 293 301
266 280 279 258 189 224 231 335 2 143 354 247 246 248 256 245 215 219 234 224 218 216 217 216 240 242 264 256 252 253 256 257 257 258 255 257 248 241 241 241 249 266 285 298
291 253 258 239 218 218 226 251 284 257 149 194 157 142 195 173 172 196 239 242 234 228 230 238 252 260 257 266 276 282 296 273 269 258 253 257 252 240 239 237 246 261 281 283
279 298 158 150 244 257 276 293 313 219 211 186 153 136 142 146 152 167 178 203 208 222 221 236 244 249 249 252 263 276 268 261 264 269 244 248 260 243 236 234 242 258 274 277
228 242 271 271 253 275 298 294 272 275 245 216 190 179 147 133 126 146 188 207 200 203 214 230 233 238 241 242 254 263 276 268 272 280 287 275 239 256 235 239 238 252 273 282
235 242 250 245 245 274 270 270 282 244 245 254 276 243 210 179 159 91 161 155 167 197 221 227 225 231 235 238 255 262 264 267 275 290 298 256 257 261 237 227 239 264 270 285
233 261 259 284 271 285 296 251 244 233 229 245 254 268 282 253 262 291 299 318 346 347 319 286 254 243 253 253 250 239 256 282 285 292 308 288 266 266 256 260 234 237 284 300
252 265 271 275 320 321 309 260 244 240 234 209 215 238 273 272 311 244 262 259 271 293 291 295 273 265 266 262 246 231 256 278 281 276 250 296 282 262 261 252 246 250 276 290
253 270 270 270 264 289 316 328 286 250 254 213 221 215 234 245 243 246 244 244 246 260 279 287 284 270 269 278 292 329 228 238 238 282 267 289 251 255 248 239 230 255 273 286